Regional Weather Roundup
Issued by NWS

Home | Current Version | Previous Version | Text Only | Print | Product List | Glossary On
Versions: 1 2 3 4 5 6 7 8 9 10 11 12 13 14 15 16 17 18 19 20 21 22 23 24 25 26 27 28 29 30 31 32 33 34 35 36 37 38 39 40 41 42 43 44 45 46 47 48 49 50
000
ASUS45 KTFX 021019
RWRMT
MONTANA REGIONAL WEATHER ROUNDUP
NATIONAL WEATHER SERVICE GREAT FALLS MT
400 AM MDT WED SEP 02 2015

NOTE: "FAIR" INDICATES FEW OR NO CLOUDS BELOW 12000 FEET WITH NO
SIGNIFICANT WEATHER AND/OR OBSTRUCTIONS TO VISIBILITY.

MTZ001>007-043-021100-
WEST OF THE DIVIDE

CITY           SKY/WX    TMP DP  RH WIND       PRES   REMARKS
KALISPELL        N/A     51  38  60 CALM      29.74F
MISSOULA         N/A     52  37  56 N3        29.78R
BUTTE            N/A     46  35  65 CALM      29.89F
MULLAN PASS    CLOUDY    49  33  54 VRB5      29.88S
DEER LODGE       N/A     45  34  65 CALM      29.87F
EUREKA           N/A     54  43  66 CALM      29.73S
HAMILTON         N/A     52  41  66 S3        29.77F
LIBBY            N/A     52  39  62 CALM      29.75R
PLAINS           N/A     52  37  56 CALM      29.78S
RONAN            N/A     52  41  66 CALM      29.82R
THOMPSON FALLS   N/A     53  38  56 CALM      29.83R
$$

MTZ008-052>055-021100-
SOUTHWEST MONTANA

CITY           SKY/WX    TMP DP  RH WIND       PRES   REMARKS
BOZEMAN          N/A     53  37  54 SE7       29.82S
DILLON           N/A     62  24  23 S9        29.85F
W YELLOWSTONE  PTCLDY    39  36  87 W3        30.04S
THREE FORKS      N/A     46  46 100 CALM      29.82F
TWIN BRIDGES     N/A     50  30  46 CALM      29.85F
$$

MTZ009-010-012-014-046-048-049-054-021100-
EAST SLOPES AND CENTRAL MONTANA

CITY           SKY/WX    TMP DP  RH WIND       PRES   REMARKS
CUT BANK         N/A     59  31  34 S3        29.75F
GREAT FALLS      N/A     52  33  48 SW12      29.74R
MALMSTROM AFB    N/A     58  34  40 W8        29.73S
HELENA           N/A     56  36  47 E3        29.78S
CONRAD           N/A     51  36  56 CALM      29.78F
$$

MTZ011-013-016-021-045-047-050-051-021100-
NORTH CENTRAL MONTANA

CITY           SKY/WX    TMP DP  RH WIND       PRES   REMARKS
HAVRE            N/A     54  39  57 NE6       29.68F
LEWISTOWN        N/A     52  37  56 SW7       29.76S
N BAR RANCH      N/A     59  36  41 W8        29.82F
CHINOOK          N/A     55  39  54 CALM      29.69F
FORT BENTON      N/A     54  36  50 S6        29.70S
$$

MTZ017>020-022>027-061-062-021100-
NORTHEAST MONTANA

CITY           SKY/WX    TMP DP  RH WIND       PRES   REMARKS
GLASGOW        CLEAR     59  41  51 E14       29.71F
JORDAN           N/A     52  35  52 CALM      29.72F
SIDNEY         CLEAR     52  43  71 CALM      29.77R
WOLF POINT     CLEAR     52  43  71 E5        29.75F
MALTA            N/A     54  42  63 CALM      29.69F
PLENTYWOOD       N/A     64  43  45 E6        29.78S
POPLAR           N/A     55  43  62 NE7       29.76S
SCOBEY           N/A     46  38  74 W2        29.78S
$$

MTZ028>42-056>058-021100-
SOUTHCENTRAL AND SOUTHEAST MONTANA

CITY           SKY/WX    TMP DP  RH WIND       PRES   REMARKS
BAKER          CLEAR     57  51  80 SE5       29.81F
BILLINGS       PTCLDY    63  34  33 SW10      29.77F
LIVINGSTON     CLEAR     56  31  38 NW8       29.82F
MILES CITY     CLEAR     61  41  47 N6        29.73S
EKALAKA          N/A     66  48  52 SE9       29.82
FORSYTH          N/A     61  37  41 E6        29.71F
LAUREL           N/A     60  31  33 CALM      29.78F
ROUNDUP          N/A     58  32  37 SW5       29.70S
$$

REGIONAL REPORTS...DAKOTAS

CITY           SKY/WX    TMP DP  RH WIND       PRES   REMARKS
WILLISTON      CLEAR     57  45  64 N5        29.77S
MINOT          CLEAR     62  59  90 E5        29.77R
DICKINSON      CLEAR     57  53  86 S7        29.80S
BEACH            N/A     55  52  88 SE6       29.81F
CROSBY           N/A     55  46  71 SE5       29.79S
BISMARCK       CLEAR     63  62  97 E7        29.79S
GRAND FORKS    CLEAR     63  61  93 SE3       29.82R
FARGO          CLEAR     70  67  90 SE9       29.84R
BUFFALO SD       N/A     64  54  69 SE7       29.77S
RAPID CITY     CLEAR     60  49  66 NW10      29.85R
$$

REGIONAL REPORTS...WYOMING/IDAHO/WASHINGTON

CITY           SKY/WX    TMP DP  RH WIND       PRES   REMARKS
GILLETTE       MOCLDY    73  41  31 SW20      29.87S
SHERIDAN       MOCLDY    58  39  49 S5        29.85S
BUFFALO WY     MOCLDY    73  36  25 W15       29.93R
CODY           CLEAR     63  32  31 SW10      29.92S
YELLOWSTONE LA   N/A     43  42  97 VRB3      30.15S
IDAHO FALLS    CLEAR     64  41  42 SW7       29.90R
SALMON           N/A     48  39  71 CALM      29.81S
BOISE            N/A     66  37  34 SE12      29.77R
SPOKANE        CLOUDY    60  44  55 S10       29.75R
$$

REGIONAL REPORTS...ALBERTA

CITY           SKY/WX    TMP DP  RH WIND       PRES   REMARKS
EDMONTON       CLEAR     50  43  76 NE7       29.60F
CALGARY        MOCLDY    54  36  50 CALM      29.61S
LETHBRIDGE     MOCLDY    54  36  50 W10       29.67F
MEDICINE HAT   PTCLDY    54  39  58 S5        29.66F
WATERTON GATE    N/A     63  28  27 SW14G26     N/A
CARDSTON         N/A     59  27  29 SW6         N/A
MILK RIVER       N/A     59  34  38 S8          N/A
$$

REGIONAL REPORTS...SASKATCHEWAN

CITY           SKY/WX    TMP DP  RH WIND       PRES   REMARKS
SWIFT CURRENT  MOCLDY    57  36  44 S12       29.72S
REGINA           N/A     52  45  76 E7        29.77R
SASKATOON      PTCLDY    55  45  67 E7        29.72S
CYPRESS HILLS    N/A     59  27  29 SE5         N/A
VAL MARIE        N/A     55  43  62 E3          N/A
ROCKGLEN         N/A     59  41  51 SE9         N/A
ASSINIBOIA       N/A     52  43  71 NE10        N/A
$$


USA.gov is the U.S. government's official web portal to all federal, state and local government web resources and services.